Simultaneous Nadir Overpasses (SNOs) Predictions

Prediction of SNOs between AQUA and NOAA-19 Satellite Orbit:

Table of predicted SNOs for the next 14.0 days since TLE Epoch: 6/1/2018
Index Date (AQUA) Time (AQUA) Lat,Lon (AQUA) SZA (AQUA ) Date (NOAA-19) Time (NOAA-19) Lat,Lon (NOAA-19) SZA (NOAA-19 ) Distance(km) Time Diff (sec)
1 06/03/2018 11:39:08 80.79, -32.93 60.47 06/03/2018 11:38:04 80.80, -32.83 60.50 2.36 64
2 06/03/2018 12:28:35 -80.82, 134.39 119.49 06/03/2018 12:29:10 -80.80, 134.47 119.52 1.91 35
3 06/05/2018 17:12:51 -80.79, 63.68 119.79 06/05/2018 17:11:46 -80.80, 63.61 119.74 1.74 65
4 06/05/2018 18:02:18 80.79,-128.72 60.22 06/05/2018 18:02:40 80.81,-128.78 60.23 2.00 22
5 06/07/2018 23:36:02 -80.81, -32.44 119.94 06/07/2018 23:36:22 -80.80, -32.36 119.97 1.94 20
6 06/10/2018 05:09:45 80.80, 64.30 59.86 06/10/2018 05:09:52 80.80, 64.35 59.85 0.91 7
7 06/12/2018 10:43:28 -80.79, 160.96 120.30 06/12/2018 10:43:33 -80.80, 161.03 120.31 1.65 5




NCC Satellite Simultaneous Nadir Overpasses (SNOs) Prediction Service
